SCP
0 0 0 0 0 0 0 0 0 0 0 0 0 0 0 0 0 0 0 0 0 0 0 0 -0 0 -0 -0 0 -0 0 0 -0 -0 0 0 0 0 0 0 0 0 1 1 1
0 0 0 0 0 0 0 0 0 0 0 0 0 0 0 0 0 0 0 0 0 0 0 0 0 0 0 0 -0 0 0 0 -0 0 0 0 0 0 0 0 0 0 1 1 1
0 0 0 0 0 0 0 0 0 0 0 0 0 0 0 0 0 0 0 0 0 0 0 0 0 0 0 0 0 -0 0 0 0 0 0 0 0 0 0 0 0 0 0 1 1
0 0 0 0 0 0 0 0 0 0 0 0 0 0 0 0 0 0 -0 0 0 0 0 0 0 0 0 0 0 0 -0 0 0 0 0 0 0 0 0 0 -0 0 0 2 0
0 0 0 0 0 0 0 0 0 0 0 0 0 0 0 0 0 0 0 -0 -0 0 0 0 0 0 0 0 0 0 0 0 0 0 0 0 0 0 0 0 0 0 0 2 1
0 0 0 0 0 0 0 0 0 0 0 0 0 0 0 0 0 0 0 0 0 0 0 0 0 0 0 0 0 0 0 0 0 0 0 0 0 0 0 0 0 0 0 0 2
0 0 0 0 0 0 0 0 0 0 0 0 0 0 0 0 0 0 0 0 0 0 0 0 0 0 0 0 0 0 0 0 0 0 0 0 0 0 0 0 0 0 0 0 0
0 0 0 0 0 0 0 0 0 0 0 0 0 0 0 0 0 0 0 0 0 0 0 0 0 0 0 0 0 0 0 0 0 0 0 0 0 0 0 0 0 0 0 0 0
0 0 0 0 0 0 0 0 0 0 0 0 0 0 0 0 0 0 0 0 0 0 0 0 0 0 0 0 0 0 0 0 0 0 0 -0 0 0 0 0 0 0 0 0 0
0 0 0 0 0 0 0 0 0 0 0 0 0 0 0 0 0 0 0 0 0 0 0 0 0 0 0 0 0 0 0 0 0 0 0 0 0 -0 0 0 0 0 0 0 0
0 0 0 0 0 0 0 0 0 0 0 0 0 0 0 0 0 0 0 0 0 0 0 0 0 0 0 0 0 0 0 0 0 0 0 0 0 0 0 0 0 0 0 0 0
0 0 0 0 0 0 0 0 0 0 0 0 0 0 -0 0 0 -0 0 0 0 0 0 0 0 0 0 0 0 0 0 0 0 0 0 0 0 0 0 0 0 0 0 0 0
0 0 0 0 0 0 0 0 0 0 0 0 0 0 0 0 0 -0 0 0 0 0 0 0 0 0 0 0 0 0 0 0 0 0 0 0 0 0 0 0 0 0 0 0 0
0 0 0 0 0 0 0 0 0 0 0 0 0 0 0 0 0 0 0 0 0 0 0 0 0 0 0 0 0 0 0 0 0 0 0 0 0 0 0 0 0 0 0 0 0
0 0 0 0 0 0 0 0 0 0 0 0 0 0 0 0 0 0 0 0 0 0 0 0 0 0 0 0 0 0 0 0 0 0 0 0 0 0 0 0 0 0 0 0 0
0 0 0 0 0 0 0 0 0 0 0 0 0 0 0 0 0 0 0 0 0 0 0 0 0 0 0 0 0 0 0 0 0 0 0 0 0 0 0 0 0 0 0 0 0
0 0 0 0 0 0 0 0 0 0 0 0 0 0 0 0 0 0 0 0 0 0 0 0 0 0 0 0 0 0 0 0 0 0 0 0 0 0 0 0 0 0 0 0 0
0 0 0 0 0 0 0 0 0 0 0 0 0 0 0 0 0 0 0 0 0 0 0 0 0 0 0 0 0 0 0 0 1 1 0 0 0 0 0 0 0 0 0 0 0
0 0 0 0 0 0 0 0 0 0 0 0 0 0 0 0 0 0 0 0 0 0 0 0 0 0 0 0 0 0 0 0 0 0 0 0 0 0 0 0 0 0 0 0 0
0 0 0 0 0 0 0 0 0 0 0 0 0 0 0 0 0 0 0 0 0 0 0 0 0 0 0 0 0 0 0 0 0 1 0 0 0 0 0 0 0 0 0 0 0
0 0 0 0 0 0 0 0 0 0 0 0 0 0 0 0 0 0 0 0 0 0 0 0 0 0 0 0 0 0 0 0 0 0 0 0 0 0 0 0 0 0 0 0 0
0 0 0 0 0 0 0 0 0 0 0 0 0 0 0 0 0 0 0 0 0 0 0 0 0 0 0 0 0 0 0 0 0 0 0 0 0 0 0 0 0 -0 0 0 0
0 0 0 0 0 0 0 0 0 0 0 0 0 0 0 0 0 0 0 0 0 0 0 0 0 0 0 0 -0 0 0 0 0 0 0 0 0 0 0 0 -0 -0 -0 -0 -0
0 0 0 0 0 0 0 0 0 0 0 0 0 0 0 0 0 0 0 0 0 0 0 0 0 0 0 0 0 0 0 0 0 0 0 0 0 0 0 0 -0 -0 -0 -0 -0
0 0 0 0 0 0 0 0 0 0 0 0 0 0 0 0 0 0 0 0 0 0 0 0 0 0 0 0 0 0 0 0 0 0 0 0 0 0 0 0 0 -0 -0 -0 0
0 0 0 0 0 0 0 0 0 0 0 0 0 0 0 0 0 0 0 0 0 0 0 0 0 0 0 0 0 0 0 0 0 0 0 0 0 0 0 0 0 0 0 -0 -0
0 0 0 0 0 0 0 0 0 0 0 0 0 0 0 0 0 0 0 0 0 0 0 0 0 0 0 0 0 0 0 0 0 0 0 0 0 0 0 0 0 0 0 0 0
Wind_Speed_500mb
25 24 24 24 23 23 24 25 26 29 29 31 32 35 38 42 41 33 34 30 28 30 31 24 25 29 26 35 35 41 24 29 39 39 40 33 8 4 16 18 25 8 18 9 46
28 27 27 27 25 25 27 28 28 31 32 33 35 35 37 45 46 43 41 33 34 37 26 22 24 26 28 38 38 29 25 41 40 40 35 40 35 31 26 27 26 27 23 33 44
31 31 31 29 27 29 29 31 30 32 33 33 34 37 36 37 45 12 7 18 25 21 14 24 27 31 39 40 41 42 35 41 46 51 47 39 44 46 37 33 38 24 43 49 52
35 35 35 32 30 31 31 32 33 36 36 35 36 38 36 30 14 6 24 25 14 14 18 25 30 36 38 38 47 42 49 52 46 53 54 36 49 43 47 47 53 33 13 48 52
38 35 35 33 32 32 31 30 33 33 35 33 33 38 38 20 50 38 39 39 41 38 26 32 36 40 37 35 48 44 46 50 52 58 61 57 45 46 53 58 56 49 35 42 56
32 34 35 35 34 33 36 33 34 33 32 31 30 34 30 43 13 14 20 24 24 22 29 33 37 38 45 45 40 52 56 59 62 63 65 55 51 55 57 59 58 59 60 38 50
36 41 43 42 37 33 31 30 29 27 26 29 28 29 34 59 30 30 35 38 38 44 47 39 36 36 37 40 45 49 49 41 43 53 52 66 52 53 67 67 64 62 62 64 42
40 44 42 36 32 31 27 24 26 28 28 28 28 31 38 34 31 39 38 42 44 46 48 42 40 44 46 46 58 47 51 45 46 50 53 56 50 47 56 48 58 65 64 62 54
38 35 34 30 28 28 29 32 43 44 42 40 40 20 39 19 19 19 19 21 19 19 22 29 32 41 36 36 37 37 42 51 54 49 51 47 50 36 45 48 32 36 39 56 57
38 36 33 30 29 30 41 47 41 42 37 25 27 21 49 33 19 13 15 14 19 23 27 24 21 26 27 27 34 37 42 43 43 41 41 38 41 43 30 42 44 37 47 53 49
39 38 36 35 36 41 33 15 18 6 19 27 17 29 18 14 21 25 23 26 24 25 28 38 29 33 38 40 47 47 49 52 47 47 50 43 46 39 40 39 33 41 40 49 56
40 40 42 39 29 19 5 7 3 10 23 45 63 63 62 48 51 58 32 23 26 36 33 35 48 42 44 46 47 50 54 51 49 47 41 42 52 47 43 40 48 43 51 60 58
38 32 26 19 14 12 1 7 3 11 16 34 56 45 46 41 57 65 42 44 36 38 36 43 36 32 42 43 47 51 47 46 52 46 48 40 56 40 50 47 55 63 60 58 53
27 23 19 14 7 10 12 4 4 10 10 10 12 10 20 14 18 36 35 26 27 38 37 37 42 48 47 52 39 49 32 45 47 42 33 35 39 44 42 41 37 51 54 71 52
24 21 22 31 13 12 13 9 5 5 9 13 17 15 11 22 21 25 18 21 28 29 21 34 28 19 31 38 31 51 22 31 43 40 41 55 21 53 32 39 39 28 40 42 39
21 23 24 26 16 10 11 12 3 9 14 8 10 13 21 26 23 12 18 24 25 26 31 42 52 36 36 41 25 22 23 29 30 24 16 61 24 45 28 28 25 27 37 32 36
24 23 33 24 10 22 21 9 10 11 7 12 4 8 17 20 20 13 27 27 16 12 26 33 43 32 17 28 38 29 21 8 12 20 22 35 29 29 34 18 33 31 31 31 38
23 23 26 13 24 18 17 14 18 14 19 2 1 14 20 24 20 27 20 29 16 14 22 27 34 13 24 14 20 27 22 17 13 14 7 14 12 3 27 36 32 32 30 31 35
18 15 14 17 21 27 19 18 11 17 17 26 29 19 28 31 19 13 25 30 2 1 13 23 29 11 6 11 15 16 20 21 13 21 10 17 29 19 21 41 38 35 44 53 44
16 12 14 7 19 24 10 27 20 24 23 8 16 19 29 28 24 20 29 12 6 4 12 10 18 31 9 5 5 11 16 13 6 10 25 25 34 5 21 22 23 26 32 54 59
22 8 4 10 17 14 11 14 22 43 41 16 23 30 34 33 37 29 23 15 22 17 10 14 17 26 21 17 16 8 3 1 7 6 11 19 3 12 18 19 20 28 52 64 66
14 6 5 15 10 10 13 17 17 27 32 24 17 27 32 35 38 38 36 28 12 9 11 16 9 18 35 38 35 27 19 9 7 5 5 8 9 27 27 18 13 15 32 52 44
11 10 5 13 6 11 20 22 26 24 21 20 27 26 28 31 34 38 38 40 14 18 7 9 4 11 21 27 40 22 5 11 8 5 21 12 11 27 23 24 23 19 28 32 37
13 5 2 9 7 9 17 24 25 17 14 26 29 31 30 30 32 36 36 35 13 24 10 4 20 24 24 34 37 40 30 32 28 12 21 19 35 36 33 34 35 22 27 34 37
7 7 14 7 13 13 15 14 15 21 20 19 14 25 29 29 31 33 34 33 35 22 19 10 23 30 40 46 48 48 53 50 45 37 35 40 44 42 38 34 40 52 27 35 40
11 6 6 4 17 17 10 13 17 15 8 19 10 15 16 19 16 10 23 23 17 18 9 13 7 19 34 43 45 48 49 47 48 47 48 44 44 40 47 53 44 45 48 37 41
5 3 5 3 13 14 17 16 13 3 6 14 12 14 16 10 14 20 25 28 23 27 26 25 12 11 29 30 33 25 33 36 43 44 42 35 35 38 42 38 40 47 42 37 28
Wind_Direction_500mb
242 247 255 263 270 277 282 289 295 300 303 307 310 314 317 314 307 303 280 260 257 260 284 295 278 265 262 268 260 263 269 268 272 276 280 319 358 300 274 288 298 232 257 113 166
243 248 252 257 265 276 281 286 290 295 300 306 310 312 315 316 310 297 271 254 257 262 275 285 289 292 286 275 270 245 248 263 275 288 324 332 308 311 275 233 230 253 150 147 159
242 246 251 258 262 268 274 279 285 290 295 300 305 308 310 317 316 258 244 240 257 255 273 282 281 277 273 274 271 270 258 269 270 286 308 300 302 298 293 260 263 245 213 179 169
244 247 254 259 264 267 274 280 285 290 294 299 304 307 308 312 292 35 319 304 265 225 266 279 276 273 273 280 280 281 274 261 276 283 295 287 284 280 266 275 282 289 283 170 179
248 250 256 260 264 269 273 279 283 285 291 296 304 308 311 276 256 295 284 294 288 269 257 260 263 268 272 275 275 272 273 279 280 280 276 278 270 270 268 271 278 280 272 187 191
250 256 255 260 263 269 273 278 282 283 287 295 303 301 307 277 281 262 282 271 273 260 259 262 262 266 275 278 284 285 288 285 281 281 285 282 275 267 258 259 260 264 267 223 203
250 260 259 262 266 273 278 284 291 295 292 297 301 303 286 256 263 266 274 264 259 266 269 261 264 265 277 282 275 279 274 277 274 273 271 273 265 256 255 252 254 255 249 242 216
252 262 259 260 262 272 279 287 298 298 295 295 295 303 274 274 267 269 274 272 265 255 255 259 257 263 265 272 279 276 274 275 270 272 267 254 259 260 268 260 248 240 238 246 214
246 253 257 255 256 268 275 284 298 292 284 284 286 279 277 282 264 269 262 272 279 259 249 245 245 251 255 248 263 254 264 268 277 271 269 265 280 268 259 254 276 283 270 231 232
235 243 249 253 260 270 284 295 298 289 282 283 261 262 257 259 275 263 280 271 264 268 248 234 238 239 230 238 245 255 259 265 265 263 273 256 266 279 260 270 267 248 263 274 270
228 237 248 256 266 282 295 311 294 249 229 229 237 219 282 265 280 266 273 289 272 277 262 233 230 234 237 242 246 260 265 268 272 281 293 293 289 280 287 259 237 269 253 245 246
227 242 254 263 267 261 277 258 6 318 291 253 254 253 260 270 276 261 261 259 251 255 258 248 249 255 263 254 264 269 270 272 280 285 277 284 279 277 270 272 276 261 254 260 248
233 235 242 240 237 196 195 193 304 324 259 275 248 249 251 251 253 261 256 251 244 260 255 257 262 275 267 264 256 259 259 275 276 279 276 282 278 275 275 266 261 258 257 253 251
213 214 205 184 187 194 214 159 309 335 279 196 167 245 203 231 266 242 233 241 248 248 249 265 266 252 261 266 272 271 273 279 286 285 278 273 278 276 290 286 276 243 281 231 247
211 203 187 169 131 188 178 197 309 351 280 114 125 134 184 216 348 208 208 223 252 256 226 248 275 266 252 252 264 270 324 306 291 293 314 269 262 278 277 283 274 262 51 42 32
193 194 176 186 166 154 190 192 298 228 238 173 129 186 210 222 246 243 218 224 274 268 261 268 274 281 279 285 268 302 318 319 288 266 260 263 257 273 275 331 276 72 63 43 33
169 163 160 150 174 208 181 191 231 233 147 166 238 171 258 274 226 237 271 231 243 277 247 273 256 247 345 296 267 243 275 301 254 231 241 259 258 239 344 55 56 72 61 39 29
155 156 161 166 189 188 167 220 237 238 246 353 200 287 259 261 237 254 267 276 195 286 278 281 279 16 28 17 329 307 255 247 270 255 314 324 264 44 13 52 61 71 59 45 35
146 141 132 206 195 177 190 222 216 231 276 313 294 255 265 262 214 282 257 261 174 132 292 320 287 80 26 26 355 342 271 325 297 251 261 249 256 173 82 29 22 17 3 4 12
113 143 160 210 192 171 213 232 238 270 299 246 274 300 296 294 263 235 263 44 348 355 43 337 290 284 81 200 129 302 360 295 231 269 255 256 263 82 79 66 24 11 13 346 352
131 166 192 248 182 188 222 226 261 266 293 267 273 278 289 289 289 271 270 128 203 211 218 271 236 276 312 253 293 199 200 58 276 283 289 281 272 123 88 69 32 348 347 347 341
135 99 316 163 177 212 235 243 258 283 290 285 239 266 281 287 294 295 290 298 94 293 237 232 241 265 275 296 303 254 274 192 241 195 261 302 284 162 146 122 36 314 309 306 305
94 96 0 138 201 230 250 257 256 268 277 281 276 261 268 274 276 278 278 287 105 271 310 15 289 287 271 261 239 254 224 211 153 167 241 252 264 184 213 245 235 275 277 273 284
127 117 169 202 263 270 244 254 245 209 254 288 290 297 290 274 279 285 279 280 278 251 88 272 258 254 266 283 304 291 267 231 210 230 258 250 274 277 280 300 302 295 303 258 257
104 210 167 183 207 221 272 289 269 259 235 243 264 252 259 273 277 272 280 289 296 234 251 243 254 249 261 271 273 274 280 275 270 253 244 267 267 274 280 299 313 303 286 293 295
136 162 200 279 137 188 161 233 242 270 274 270 303 339 309 293 301 298 317 313 286 322 334 257 255 286 281 278 277 271 267 268 272 281 286 287 287 297 305 302 303 317 307 284 275
130 181 251 137 173 221 204 224 226 194 268 271 289 295 289 317 327 327 313 300 283 285 287 288 283 293 278 290 296 281 264 266 269 268 280 288 303 307 298 298 302 304 319 348 359
Wind_Speed_850mb
25 24 24 24 23 23 24 25 26 29 29 31 32 35 38 42 41 33 34 30 28 30 31 24 25 29 26 35 35 41 24 29 39 39 40 33 8 4 16 18 25 8 18 9 46
28 27 27 27 25 25 27 28 28 31 32 33 35 35 37 45 46 43 41 33 34 37 26 22 24 26 28 38 38 29 25 41 40 40 35 40 35 31 26 27 26 27 23 33 44
31 31 31 29 27 29 29 31 30 32 33 33 34 37 36 37 45 12 7 18 25 21 14 24 27 31 39 40 41 42 35 41 46 51 47 39 44 46 37 33 38 24 43 49 52
35 35 35 32 30 31 31 32 33 36 36 35 36 38 36 30 14 6 24 25 14 14 18 25 30 36 38 38 47 42 49 52 46 53 54 36 49 43 47 47 53 33 13 48 52
38 35 35 33 32 32 31 30 33 33 35 33 33 38 38 20 50 38 39 39 41 38 26 32 36 40 37 35 48 44 46 50 52 58 61 57 45 46 53 58 56 49 35 42 56
32 34 35 35 34 33 36 33 34 33 32 31 30 34 30 43 13 14 20 24 24 22 29 33 37 38 45 45 40 52 56 59 62 63 65 55 51 55 57 59 58 59 60 38 50
36 41 43 42 37 33 31 30 29 27 26 29 28 29 34 59 30 30 35 38 38 44 47 39 36 36 37 40 45 49 49 41 43 53 52 66 52 53 67 67 64 62 62 64 42
40 44 42 36 32 31 27 24 26 28 28 28 28 31 38 34 31 39 38 42 44 46 48 42 40 44 46 46 58 47 51 45 46 50 53 56 50 47 56 48 58 65 64 62 54
38 35 34 30 28 28 29 32 43 44 42 40 40 20 39 19 19 19 19 21 19 19 22 29 32 41 36 36 37 37 42 51 54 49 51 47 50 36 45 48 32 36 39 56 57
38 36 33 30 29 30 41 47 41 42 37 25 27 21 49 33 19 13 15 14 19 23 27 24 21 26 27 27 34 37 42 43 43 41 41 38 41 43 30 42 44 37 47 53 49
39 38 36 35 36 41 33 15 18 6 19 27 17 29 18 14 21 25 23 26 24 25 28 38 29 33 38 40 47 47 49 52 47 47 50 43 46 39 40 39 33 41 40 49 56
40 40 42 39 29 19 5 7 3 10 23 45 63 63 62 48 51 58 32 23 26 36 33 35 48 42 44 46 47 50 54 51 49 47 41 42 52 47 43 40 48 43 51 60 58
38 32 26 19 14 12 1 7 3 11 16 34 56 45 46 41 57 65 42 44 36 38 36 43 36 32 42 43 47 51 47 46 52 46 48 40 56 40 50 47 55 63 60 58 53
27 23 19 14 7 10 12 4 4 10 10 10 12 10 20 14 18 36 35 26 27 38 37 37 42 48 47 52 39 49 32 45 47 42 33 35 39 44 42 41 37 51 54 71 52
24 21 22 31 13 12 13 9 5 5 9 13 17 15 11 22 21 25 18 21 28 29 21 34 28 19 31 38 31 51 22 31 43 40 41 55 21 53 32 39 39 28 40 42 39
21 23 24 26 16 10 11 12 3 9 14 8 10 13 21 26 23 12 18 24 25 26 31 42 52 36 36 41 25 22 23 29 30 24 16 61 24 45 28 28 25 27 37 32 36
24 23 33 24 10 22 21 9 10 11 7 12 4 8 17 20 20 13 27 27 16 12 26 33 43 32 17 28 38 29 21 8 12 20 22 35 29 29 34 18 33 31 31 31 38
23 23 26 13 24 18 17 14 18 14 19 2 1 14 20 24 20 27 20 29 16 14 22 27 34 13 24 14 20 27 22 17 13 14 7 14 12 3 27 36 32 32 30 31 35
18 15 14 17 21 27 19 18 11 17 17 26 29 19 28 31 19 13 25 30 2 1 13 23 29 11 6 11 15 16 20 21 13 21 10 17 29 19 21 41 38 35 44 53 44
16 12 14 7 19 24 10 27 20 24 23 8 16 19 29 28 24 20 29 12 6 4 12 10 18 31 9 5 5 11 16 13 6 10 25 25 34 5 21 22 23 26 32 54 59
22 8 4 10 17 14 11 14 22 43 41 16 23 30 34 33 37 29 23 15 22 17 10 14 17 26 21 17 16 8 3 1 7 6 11 19 3 12 18 19 20 28 52 64 66
14 6 5 15 10 10 13 17 17 27 32 24 17 27 32 35 38 38 36 28 12 9 11 16 9 18 35 38 35 27 19 9 7 5 5 8 9 27 27 18 13 15 32 52 44
11 10 5 13 6 11 20 22 26 24 21 20 27 26 28 31 34 38 38 40 14 18 7 9 4 11 21 27 40 22 5 11 8 5 21 12 11 27 23 24 23 19 28 32 37
13 5 2 9 7 9 17 24 25 17 14 26 29 31 30 30 32 36 36 35 13 24 10 4 20 24 24 34 37 40 30 32 28 12 21 19 35 36 33 34 35 22 27 34 37
7 7 14 7 13 13 15 14 15 21 20 19 14 25 29 29 31 33 34 33 35 22 19 10 23 30 40 46 48 48 53 50 45 37 35 40 44 42 38 34 40 52 27 35 40
11 6 6 4 17 17 10 13 17 15 8 19 10 15 16 19 16 10 23 23 17 18 9 13 7 19 34 43 45 48 49 47 48 47 48 44 44 40 47 53 44 45 48 37 41
5 3 5 3 13 14 17 16 13 3 6 14 12 14 16 10 14 20 25 28 23 27 26 25 12 11 29 30 33 25 33 36 43 44 42 35 35 38 42 38 40 47 42 37 28
Wind_Direction_850mb
242 247 255 263 270 277 282 289 295 300 303 307 310 314 317 314 307 303 280 260 257 260 284 295 278 265 262 268 260 263 269 268 272 276 280 319 358 300 274 288 298 232 257 113 166
243 248 252 257 265 276 281 286 290 295 300 306 310 312 315 316 310 297 271 254 257 262 275 285 289 292 286 275 270 245 248 263 275 288 324 332 308 311 275 233 230 253 150 147 159
242 246 251 258 262 268 274 279 285 290 295 300 305 308 310 317 316 258 244 240 257 255 273 282 281 277 273 274 271 270 258 269 270 286 308 300 302 298 293 260 263 245 213 179 169
244 247 254 259 264 267 274 280 285 290 294 299 304 307 308 312 292 35 319 304 265 225 266 279 276 273 273 280 280 281 274 261 276 283 295 287 284 280 266 275 282 289 283 170 179
248 250 256 260 264 269 273 279 283 285 291 296 304 308 311 276 256 295 284 294 288 269 257 260 263 268 272 275 275 272 273 279 280 280 276 278 270 270 268 271 278 280 272 187 191
250 256 255 260 263 269 273 278 282 283 287 295 303 301 307 277 281 262 282 271 273 260 259 262 262 266 275 278 284 285 288 285 281 281 285 282 275 267 258 259 260 264 267 223 203
250 260 259 262 266 273 278 284 291 295 292 297 301 303 286 256 263 266 274 264 259 266 269 261 264 265 277 282 275 279 274 277 274 273 271 273 265 256 255 252 254 255 249 242 216
252 262 259 260 262 272 279 287 298 298 295 295 295 303 274 274 267 269 274 272 265 255 255 259 257 263 265 272 279 276 274 275 270 272 267 254 259 260 268 260 248 240 238 246 214
246 253 257 255 256 268 275 284 298 292 284 284 286 279 277 282 264 269 262 272 279 259 249 245 245 251 255 248 263 254 264 268 277 271 269 265 280 268 259 254 276 283 270 231 232
235 243 249 253 260 270 284 295 298 289 282 283 261 262 257 259 275 263 280 271 264 268 248 234 238 239 230 238 245 255 259 265 265 263 273 256 266 279 260 270 267 248 263 274 270
228 237 248 256 266 282 295 311 294 249 229 229 237 219 282 265 280 266 273 289 272 277 262 233 230 234 237 242 246 260 265 268 272 281 293 293 289 280 287 259 237 269 253 245 246
227 242 254 263 267 261 277 258 6 318 291 253 254 253 260 270 276 261 261 259 251 255 258 248 249 255 263 254 264 269 270 272 280 285 277 284 279 277 270 272 276 261 254 260 248
233 235 242 240 237 196 195 193 304 324 259 275 248 249 251 251 253 261 256 251 244 260 255 257 262 275 267 264 256 259 259 275 276 279 276 282 278 275 275 266 261 258 257 253 251
213 214 205 184 187 194 214 159 309 335 279 196 167 245 203 231 266 242 233 241 248 248 249 265 266 252 261 266 272 271 273 279 286 285 278 273 278 276 290 286 276 243 281 231 247
211 203 187 169 131 188 178 197 309 351 280 114 125 134 184 216 348 208 208 223 252 256 226 248 275 266 252 252 264 270 324 306 291 293 314 269 262 278 277 283 274 262 51 42 32
193 194 176 186 166 154 190 192 298 228 238 173 129 186 210 222 246 243 218 224 274 268 261 268 274 281 279 285 268 302 318 319 288 266 260 263 257 273 275 331 276 72 63 43 33
169 163 160 150 174 208 181 191 231 233 147 166 238 171 258 274 226 237 271 231 243 277 247 273 256 247 345 296 267 243 275 301 254 231 241 259 258 239 344 55 56 72 61 39 29
155 156 161 166 189 188 167 220 237 238 246 353 200 287 259 261 237 254 267 276 195 286 278 281 279 16 28 17 329 307 255 247 270 255 314 324 264 44 13 52 61 71 59 45 35
146 141 132 206 195 177 190 222 216 231 276 313 294 255 265 262 214 282 257 261 174 132 292 320 287 80 26 26 355 342 271 325 297 251 261 249 256 173 82 29 22 17 3 4 12
113 143 160 210 192 171 213 232 238 270 299 246 274 300 296 294 263 235 263 44 348 355 43 337 290 284 81 200 129 302 360 295 231 269 255 256 263 82 79 66 24 11 13 346 352
131 166 192 248 182 188 222 226 261 266 293 267 273 278 289 289 289 271 270 128 203 211 218 271 236 276 312 253 293 199 200 58 276 283 289 281 272 123 88 69 32 348 347 347 341
135 99 316 163 177 212 235 243 258 283 290 285 239 266 281 287 294 295 290 298 94 293 237 232 241 265 275 296 303 254 274 192 241 195 261 302 284 162 146 122 36 314 309 306 305
94 96 0 138 201 230 250 257 256 268 277 281 276 261 268 274 276 278 278 287 105 271 310 15 289 287 271 261 239 254 224 211 153 167 241 252 264 184 213 245 235 275 277 273 284
127 117 169 202 263 270 244 254 245 209 254 288 290 297 290 274 279 285 279 280 278 251 88 272 258 254 266 283 304 291 267 231 210 230 258 250 274 277 280 300 302 295 303 258 257
104 210 167 183 207 221 272 289 269 259 235 243 264 252 259 273 277 272 280 289 296 234 251 243 254 249 261 271 273 274 280 275 270 253 244 267 267 274 280 299 313 303 286 293 295
136 162 200 279 137 188 161 233 242 270 274 270 303 339 309 293 301 298 317 313 286 322 334 257 255 286 281 278 277 271 267 268 272 281 286 287 287 297 305 302 303 317 307 284 275
130 181 251 137 173 221 204 224 226 194 268 271 289 295 289 317 327 327 313 300 283 285 287 288 283 293 278 290 296 281 264 266 269 268 280 288 303 307 298 298 302 304 319 348 359